Wind_Speed
54 52 48 47 40 39 35 31 29 28 25 27 25 24 24 25 26 25 23 24 24 23 23 21 18 18 16 13 11 7 7 7 1 7 6 5 3 7 9 7 8 7 5
65 58 56 55 46 50 49 42 35 34 30 29 31 29 29 28 28 31 30 31 33 31 26 27 25 25 23 18 16 15 11 10 11 12 12 15 15 12 10 10 13 14 13
69 67 62 66 66 61 57 50 43 39 40 36 34 34 31 31 32 32 34 33 33 35 36 35 33 30 29 28 23 22 19 18 18 18 17 16 17 18 19 22 17 22 19
70 69 61 63 67 65 63 56 50 47 42 43 41 39 38 35 34 35 34 33 32 34 35 36 36 35 36 31 30 27 25 24 25 25 25 22 24 24 25 27 27 26 26
72 68 69 58 66 63 61 58 57 50 47 44 45 45 44 43 41 40 38 37 35 33 33 35 35 37 36 35 34 30 32 33 29 28 28 31 30 31 28 27 30 34 31
75 73 69 64 61 72 68 64 59 53 48 49 45 46 48 47 48 46 44 42 40 39 37 35 35 37 36 37 39 38 40 39 37 36 37 37 33 31 33 32 32 34 40
76 75 74 73 70 62 68 68 60 56 47 52 50 47 47 52 53 50 48 45 44 41 40 40 38 39 39 36 34 36 36 34 31 30 33 34 36 36 38 37 36 37 39
82 79 78 77 76 75 68 64 56 49 44 61 42 47 48 51 54 52 50 47 47 45 40 38 40 40 40 38 37 36 36 38 37 32 32 33 38 34 33 33 34 35 41
89 84 82 80 79 78 76 67 62 62 65 49 41 43 60 57 58 51 49 46 47 46 41 36 39 41 42 39 40 39 39 40 37 37 36 36 34 34 35 33 35 35 37
93 89 85 83 81 79 78 74 67 63 60 58 49 47 38 74 73 56 52 51 47 47 47 43 42 42 39 37 37 39 41 45 42 41 42 43 46 41 40 40 41 39 38
88 92 89 87 84 82 79 78 73 67 63 64 69 69 68 53 60 61 57 51 39 44 54 58 56 46 49 47 41 37 40 44 46 44 42 43 48 49 53 53 51 45 38
86 88 90 89 87 85 83 79 76 73 70 67 72 82 70 66 76 70 64 61 53 55 63 76 65 58 55 54 47 45 44 49 48 49 50 50 50 55 55 52 52 46 44
95 86 88 90 89 86 85 83 69 69 74 72 73 77 90 67 77 77 73 72 62 64 77 75 66 64 55 52 48 44 51 50 53 55 55 57 58 56 61 60 55 51 50
95 91 87 88 89 89 87 86 80 69 72 74 74 78 84 87 79 79 78 78 76 72 77 77 71 69 58 60 63 62 53 60 62 61 62 64 63 66 65 61 60 61 57
91 91 87 85 86 89 89 86 86 80 78 66 67 76 82 85 89 90 89 87 88 90 86 84 81 78 75 75 77 74 70 58 64 72 70 70 75 74 67 63 65 65 65
79 83 84 81 83 87 90 89 88 89 80 82 78 80 80 83 92 97 98 97 93 90 85 89 86 84 85 80 81 81 74 61 58 64 65 69 69 70 70 77 72 69 69
67 75 79 79 78 83 87 90 90 89 92 85 87 82 86 88 92 93 96 95 96 96 94 86 85 86 89 89 82 81 81 77 75 72 77 76 74 72 76 78 79 80 79
60 68 74 75 72 78 84 88 91 88 91 92 93 88 89 91 96 97 95 98 102 104 102 94 88 85 87 90 89 88 87 84 86 85 86 77 75 81 91 87 81 82 80
50 58 64 64 61 65 59 83 86 89 90 90 91 94 96 97 96 96 98 102 102 101 100 98 92 90 94 95 92 91 89 92 93 94 94 90 90 91 90 84 82 84 83
42 53 60 60 56 67 76 73 81 86 90 88 90 90 96 96 98 97 99 103 104 109 104 102 102 98 97 100 99 103 102 102 100 100 104 107 108 103 103 99 102 98 93
38 44 46 50 49 54 63 67 73 78 83 89 86 87 90 92 98 101 104 102 104 107 110 109 110 107 105 106 105 100 101 106 111 107 109 109 114 116 110 110 109 109 108
34 39 44 46 48 49 55 67 61 54 63 64 72 90 93 91 91 96 102 106 108 108 109 109 112 112 112 113 115 115 117 116 121 126 123 120 118 117 118 116 116 115 114
35 40 43 44 42 42 41 40 47 56 52 64 69 74 76 83 87 92 94 97 101 104 106 109 110 112 113 114 116 115 113 116 118 119 117 116 119 120 120 118 120 122 123
36 40 42 41 47 50 48 51 56 58 59 59 58 62 72 76 79 83 84 85 87 91 93 94 101 105 108 106 107 108 111 113 113 113 112 114 115 115 118 115 110 111 118
37 40 44 48 56 56 56 61 63 66 70 68 66 71 79 83 81 81 79 80 81 81 83 84 86 86 86 88 94 99 100 100 103 107 113 116 117 113 113 111 111 114 115
34 41 45 47 56 65 66 69 73 77 75 74 76 81 86 89 85 82 85 87 86 88 89 88 90 92 93 94 98 99 100 96 92 92 98 100 104 107 109 109 113 114 120
Wind_Direction
257 263 269 256 257 274 268 257 257 255 260 269 270 262 260 250 253 256 261 264 268 271 279 281 283 288 291 296 307 311 331 292 299 324 243 229 266 235 220 204 193 208 239
255 257 255 256 252 266 271 265 257 253 252 256 263 265 268 270 264 257 259 259 263 266 267 269 272 279 276 280 290 295 301 303 265 281 302 291 302 271 253 235 237 249 263
251 251 252 258 259 262 266 262 258 256 251 248 254 257 257 264 266 269 269 269 270 270 270 267 268 267 269 273 273 275 278 283 278 275 281 284 281 282 267 277 279 267 273
249 248 248 252 257 257 260 262 260 257 253 249 243 248 250 247 255 261 264 268 272 275 277 279 277 273 269 271 271 272 270 271 275 277 284 282 276 284 271 268 272 276 268
248 244 244 247 253 246 244 249 257 259 257 249 249 243 245 249 248 252 258 263 266 268 271 275 278 279 276 271 271 275 276 271 270 274 279 280 280 277 269 262 275 275 273
247 245 243 240 242 250 251 245 244 254 258 260 254 252 247 246 251 253 254 260 265 269 272 269 269 269 269 270 269 275 275 276 275 274 277 276 278 269 266 265 275 277 276
245 244 242 240 239 241 246 247 248 251 258 258 257 256 254 253 252 253 257 261 266 268 268 269 265 265 266 264 264 266 273 275 276 270 265 274 275 278 279 272 272 272 272
245 242 242 239 238 239 239 241 240 233 260 255 261 268 268 262 259 259 258 259 263 266 269 269 271 269 269 266 264 266 267 269 269 264 265 270 267 278 276 283 284 277 267
246 241 239 239 238 237 239 237 234 230 232 234 235 246 265 269 269 263 259 256 257 261 267 271 274 271 268 271 268 264 266 269 270 270 260 260 264 274 281 281 278 279 276
245 243 238 236 237 237 237 237 233 230 228 214 215 225 259 263 262 261 260 257 258 264 270 268 272 277 273 274 268 266 266 267 266 269 263 269 271 274 278 281 280 280 282
240 242 239 236 233 235 235 235 233 231 225 220 214 211 219 229 239 249 254 255 258 268 268 262 266 265 269 270 271 280 268 267 264 262 263 268 276 274 274 277 280 283 285
240 238 239 236 233 231 234 234 232 231 228 221 221 215 219 237 235 240 238 242 229 240 241 253 248 255 253 255 260 267 270 264 258 251 257 264 270 270 272 273 276 280 279
242 238 237 236 233 231 230 232 231 231 231 227 226 223 219 228 230 234 228 235 235 237 241 245 252 249 247 246 245 259 260 258 256 256 260 263 272 273 273 271 274 278 276
239 238 237 234 232 230 229 228 226 225 230 231 229 227 228 228 230 230 225 228 230 232 238 243 243 243 242 239 243 244 256 247 253 255 266 269 270 271 270 272 271 272 275
236 236 236 233 231 228 228 227 227 222 226 227 231 233 234 234 232 228 229 231 234 237 240 245 244 243 246 247 244 246 253 258 248 255 257 263 262 269 265 269 272 270 271
233 232 232 229 229 228 226 227 227 224 223 225 224 227 229 229 229 229 230 232 235 236 239 241 242 246 245 244 242 243 248 250 249 257 255 255 259 258 264 263 270 272 272
229 228 229 228 227 226 226 225 226 225 226 224 227 227 227 230 231 228 231 232 234 235 238 239 244 247 246 245 240 242 245 252 251 253 261 264 262 260 261 267 268 270 272
223 224 226 227 226 225 225 225 225 226 228 230 228 229 231 233 234 235 236 235 236 236 238 242 246 244 246 246 245 246 249 253 256 256 262 264 266 267 266 268 271 273 271
222 221 222 224 224 223 236 231 227 227 228 231 232 232 232 235 238 240 239 236 238 240 241 244 245 245 247 248 248 249 250 252 256 257 258 265 265 267 269 269 272 271 271
210 215 218 218 221 220 219 226 226 227 228 231 233 235 236 237 240 242 242 241 242 242 243 247 249 250 249 249 252 254 254 254 255 255 259 262 266 265 266 270 271 272 271
206 214 220 216 220 223 224 226 227 229 230 231 234 237 239 240 242 245 245 246 245 245 244 245 249 252 255 256 256 256 256 258 259 257 262 263 264 265 263 264 266 269 271
203 210 207 207 217 221 223 225 223 230 232 224 233 237 238 242 245 247 248 248 249 250 249 249 250 252 255 258 259 260 260 259 258 261 265 267 266 266 266 266 267 268 269
197 197 201 209 213 205 200 219 227 226 233 238 235 241 243 242 245 248 251 252 252 252 253 253 254 255 254 255 258 260 262 261 262 265 266 267 267 267 266 267 268 267 267
200 201 204 207 201 198 198 208 226 237 232 241 244 244 247 246 247 253 253 259 260 260 260 260 259 259 259 259 261 263 265 265 266 267 268 270 271 273 273 273 274 272 270
208 209 216 211 207 205 205 207 210 219 229 237 235 235 244 252 256 258 260 264 262 262 264 265 266 267 267 265 264 266 267 267 270 270 268 268 268 268 267 268 269 269 268
226 221 220 224 219 213 216 216 219 222 227 231 236 239 244 252 256 259 261 265 266 265 265 266 266 268 271 270 272 271 276 277 272 273 274 273 272 269 269 270 269 269 271
Height
10992 10992 10995 10994 11001 11003 11007 11008 11009 11010 11011 11012 11013 11013 11013 11014 11014 11015 11016 11015 11013 11013 11013 11013 11013 11012 11011 11012 11012 11011 11010 11010 11010 11010 11010 11009 11009 11009 11008 11007 11005 11005 11005
10972 10979 10982 10983 10983 10989 10994 10998 11001 11002 11004 11004 11005 11007 11007 11007 11008 11007 11008 11009 11008 11008 11008 11007 11009 11009 11008 11008 11009 11009 11009 11009 11009 11009 11009 11008 11007 11007 11007 11007 11006 11003 11002
10958 10962 10969 10969 10971 10973 10980 10985 10989 10992 10994 10997 10996 10996 10999 11000 11000 11000 11000 11001 11001 11001 11002 11003 11003 11003 11003 11004 11004 11004 11005 11004 11003 11004 11003 11003 11004 11002 11001 11001 11002 11001 10999
10938 10942 10948 10954 10956 10959 10963 10970 10975 10978 10982 10985 10987 10986 10986 10990 10991 10991 10992 10992 10993 10993 10994 10995 10996 10997 10996 10998 10998 10998 10999 10998 10998 10998 10998 10999 10997 10997 10995 10993 10993 10994 10995
10913 10922 10927 10934 10938 10944 10948 10949 10957 10966 10969 10973 10977 10977 10976 10978 10980 10982 10983 10983 10984 10984 10986 10987 10988 10987 10989 10991 10993 10992 10991 10989 10990 10990 10990 10990 10989 10988 10987 10986 10984 10985 10988
10890 10898 10905 10914 10922 10923 10929 10938 10944 10952 10962 10964 10968 10969 10970 10970 10970 10973 10975 10975 10976 10976 10976 10977 10976 10976 10977 10980 10984 10984 10981 10980 10980 10981 10979 10979 10978 10976 10976 10977 10977 10976 10977
10869 10874 10883 10891 10899 10905 10913 10922 10937 10941 10946 10954 10960 10960 10961 10961 10961 10963 10964 10966 10967 10966 10966 10966 10965 10964 10966 10968 10971 10972 10972 10973 10973 10971 10970 10972 10968 10967 10967 10967 10967 10966 10968
10840 10851 10859 10867 10876 10883 10895 10908 10918 10920 10928 10941 10950 10951 10952 10953 10952 10953 10955 10958 10957 10956 10957 10957 10957 10956 10956 10959 10961 10961 10960 10962 10962 10962 10961 10961 10959 10959 10958 10955 10957 10957 10958
10807 10822 10834 10843 10853 10862 10871 10887 10897 10901 10911 10928 10925 10931 10947 10943 10943 10942 10943 10946 10945 10946 10948 10950 10948 10948 10947 10951 10953 10953 10952 10950 10952 10951 10951 10948 10948 10948 10946 10947 10946 10948 10948
10777 10792 10806 10819 10830 10839 10849 10859 10873 10885 10893 10906 10912 10933 10923 10919 10928 10928 10929 10931 10934 10937 10940 10941 10939 10938 10940 10939 10942 10943 10942 10938 10940 10940 10938 10937 10936 10936 10937 10937 10938 10939 10936
10753 10760 10776 10790 10804 10815 10825 10835 10847 10860 10869 10880 10890 10894 10884 10897 10905 10908 10912 10916 10919 10926 10940 10929 10926 10926 10928 10927 10927 10930 10932 10929 10929 10929 10928 10926 10925 10924 10926 10927 10926 10926 10925
10723 10733 10744 10759 10776 10790 10801 10813 10824 10834 10844 10853 10861 10867 10870 10873 10879 10885 10894 10895 10898 10899 10905 10908 10910 10910 10912 10917 10917 10917 10918 10918 10919 10916 10915 10915 10915 10916 10914 10913 10912 10914 10912
10690 10706 10717 10730 10748 10763 10777 10789 10803 10813 10822 10831 10838 10846 10851 10853 10858 10866 10871 10875 10877 10880 10884 10887 10890 10893 10895 10899 10899 10895 10900 10900 10902 10903 10901 10901 10901 10901 10900 10898 10901 10899 10899
10660 10677 10690 10704 10720 10737 10751 10765 10780 10792 10799 10807 10819 10824 10831 10835 10837 10842 10846 10849 10853 10857 10859 10862 10869 10877 10879 10883 10882 10878 10877 10875 10884 10888 10888 10886 10885 10884 10883 10883 10885 10884 10885
10633 10648 10665 10682 10695 10711 10725 10740 10754 10769 10778 10788 10797 10802 10804 10810 10815 10820 10823 10826 10830 10834 10835 10840 10849 10856 10859 10860 10860 10858 10861 10860 10864 10865 10867 10867 10867 10866 10867 10865 10867 10869 10869
10606 10623 10640 10658 10672 10686 10701 10716 10727 10741 10750 10758 10765 10768 10775 10778 10786 10792 10797 10803 10808 10813 10816 10821 10824 10830 10835 10839 10839 10841 10844 10845 10846 10849 10848 10847 10846 10848 10847 10848 10849 10850 10850
10586 10602 10618 10635 10650 10663 10678 10691 10704 10716 10728 10735 10742 10748 10754 10760 10764 10772 10779 10785 10788 10791 10795 10800 10806 10809 10813 10815 10818 10823 10825 10827 10827 10831 10832 10830 10829 10828 10828 10826 10826 10831 10831
10572 10586 10599 10616 10633 10645 10655 10667 10680 10695 10703 10711 10720 10729 10732 10737 10744 10750 10755 10762 10765 10770 10775 10779 10783 10785 10788 10793 10798 10803 10804 10806 10805 10810 10808 10811 10809 10808 10808 10806 10805 10803 10805
10565 10576 10589 10604 10618 10633 10649 10654 10662 10673 10681 10689 10699 10707 10713 10716 10723 10728 10731 10738 10744 10749 10754 10757 10760 10763 10768 10773 10778 10781 10787 10784 10785 10787 10789 10791 10789 10788 10788 10786 10785 10783 10782
10556 10562 10575 10589 10602 10611 10619 10634 10642 10650 10663 10671 10679 10684 10693 10699 10704 10707 10708 10713 10718 10724 10732 10736 10738 10742 10748 10754 10757 10760 10762 10761 10760 10762 10763 10762 10764 10765 10763 10762 10762 10760 10758
10549 10560 10570 10582 10592 10598 10606 10614 10624 10634 10643 10653 10661 10667 10674 10679 10680 10681 10687 10691 10694 10699 10708 10712 10714 10718 10725 10730 10730 10735 10736 10734 10734 10734 10734 10734 10731 10733 10735 10737 10737 10734 10735
10546 10553 10561 10571 10577 10584 10592 10601 10612 10617 10625 10633 10638 10645 10650 10655 10657 10658 10660 10663 10669 10674 10683 10688 10692 10698 10703 10706 10704 10706 10705 10707 10707 10705 10705 10704 10703 10702 10703 10704 10705 10704 10703
10540 10545 10553 10562 10570 10576 10582 10592 10598 10606 10611 10615 10619 10624 10629 10631 10632 10633 10637 10641 10648 10653 10657 10661 10665 10670 10674 10677 10677 10676 10674 10675 10676 10672 10671 10669 10664 10665 10670 10668 10670 10670 10672
10542 10547 10552 10559 10564 10568 10571 10578 10587 10592 10596 10600 10605 10609 10610 10612 10615 10617 10623 10628 10630 10631 10635 10635 10634 10638 10644 10649 10648 10646 10643 10643 10642 10640 10640 10635 10639 10633 10632 10635 10634 10630 10629
10540 10544 10547 10551 10556 10560 10564 10569 10571 10577 10583 10585 10589 10591 10591 10595 10600 10603 10603 10605 10608 10610 10611 10611 10610 10612 10612 10612 10613 10613 10610 10607 10606 10604 10603 10603 10606 10606 10603 10601 10599 10595 10589
10536 10539 10543 10546 10548 10550 10553 10556 10559 10561 10565 10567 10567 10571 10573 10573 10577 10580 10583 10584 10584 10584 10585 10585 10584 10583 10583 10580 10579 10577 10575 10573 10572 10568 10564 10564 10562 10560 10561 10562 10559 10559 10553